TimePST,TemperatureF,Dew PointF,Humidity,Sea Level PressureIn,VisibilityMPH,Wind Direction,Wind SpeedMPH,Gust SpeedMPH,PrecipitationIn,Events,Conditions,WindDirDegrees,DateUTC
12:53 AM,39.2,39.2,100,30.34,0.2,South,8.1,-,N/A,Rain,Light Rain,170,2013-03-01 08:53:00
1:53 AM,41.0,39.9,96,30.36,0.2,SSE,5.8,-,0.00,,Overcast,160,2013-03-01 09:53:00
2:34 AM,44.6,42.8,93,30.31,3.0,SSW,10.4,-,N/A,,Overcast,200,2013-03-01 10:34:00
2:53 AM,44.1,42.1,93,30.32,3.0,South,12.7,-,N/A,,Overcast,180,2013-03-01 10:53:00
3:53 AM,44.1,43.0,96,30.34,3.0,SSW,13.8,23.0,0.01,,Overcast,200,2013-03-01 11:53:00
4:53 AM,44.1,43.0,96,30.33,6.0,SSW,17.3,23.0,N/A,,Overcast,200,2013-03-01 12:53:00
5:53 AM,44.1,42.1,93,30.33,7.0,SSW,16.1,24.2,N/A,,Overcast,200,2013-03-01 13:53:00
6:53 AM,44.1,42.1,93,30.33,10.0,SSW,21.9,-,N/A,,Overcast,200,2013-03-01 14:53:00
7:53 AM,45.0,42.1,90,30.34,10.0,SSW,21.9,-,N/A,,Mostly Cloudy,200,2013-03-01 15:53:00
8:22 AM,44.6,41.0,87,30.30,10.0,SSW,15.0,-,N/A,,Mostly Cloudy,200,2013-03-01 16:22:00
8:53 AM,46.0,41.0,83,30.35,10.0,SSW,16.1,-,N/A,,Mostly Cloudy,200,2013-03-01 16:53:00
9:53 AM,48.0,42.1,80,30.35,10.0,SSW,18.4,28.8,N/A,,Overcast,200,2013-03-01 17:53:00
10:53 AM,48.0,42.1,80,30.35,10.0,SSW,21.9,29.9,N/A,,Overcast,210,2013-03-01 18:53:00
11:53 AM,48.9,42.1,77,30.33,10.0,SSW,21.9,27.6,N/A,,Overcast,200,2013-03-01 19:53:00
12:53 PM,50.0,43.0,77,30.32,10.0,SSW,17.3,28.8,N/A,,Mostly Cloudy,210,2013-03-01 20:53:00
1:53 PM,50.0,44.1,80,30.32,10.0,SSW,12.7,24.2,N/A,,Mostly Cloudy,200,2013-03-01 21:53:00
2:53 PM,51.1,44.1,77,30.32,10.0,SSW,18.4,-,N/A,,Mostly Cloudy,210,2013-03-01 22:53:00
3:53 PM,51.1,44.1,77,30.32,10.0,SSW,16.1,-,N/A,,Mostly Cloudy,210,2013-03-01 23:53:00
4:53 PM,50.0,43.0,77,30.32,10.0,SSW,12.7,-,N/A,,Overcast,200,2013-03-02 00:53:00
5:53 PM,48.2,42.8,82,30.28,10.0,South,11.5,-,N/A,,Overcast,190,2013-03-02 01:53:00
6:53 PM,48.9,42.1,77,30.31,10.0,SSE,5.8,-,N/A,,Overcast,160,2013-03-02 02:53:00
7:53 PM,46.9,41.0,80,30.31,10.0,SSE,4.6,-,N/A,,Overcast,160,2013-03-02 03:53:00
8:53 PM,46.9,41.0,80,30.31,10.0,SSE,5.8,-,N/A,,Mostly Cloudy,160,2013-03-02 04:53:00
9:53 PM,45.0,39.9,82,30.30,10.0,South,10.4,-,N/A,,Mostly Cloudy,170,2013-03-02 05:53:00
10:53 PM,43.0,39.0,86,30.30,10.0,South,5.8,-,N/A,,Scattered Clouds,170,2013-03-02 06:53:00
11:53 PM,43.0,37.9,82,30.29,10.0,SSE,6.9,-,N/A,,Overcast,160,2013-03-02 07:53:00